Tracking 18794 objects as of 21-September-2017
HD Live streaming from Space Station
objects crossing your sky now

COSMOS 2490

Track COSMOS 2490 now!
10-day predictions
COSMOS 2490 is classified as:


NORAD ID: 39485
Int'l Code: 2013-076C
Perigee: 1,485.1 km
Apogee: 1,518.0 km
Inclination: 82.5 °
Period: 115.9 minutes
Semi major axis: 7872 km
RCS: Unknown
Launch date: December 25, 2013
Source: Commonwealth of Independent States (former USSR) (CIS)
Launch site: PLESETSK MISSILE AND SPACE COMPLEX (PKMTR)

COSMOS 2488 is a Russian military satellite apparently designed to relay messages between military users posted in remote areas.
aabbcc
Your satellite tracking list
Your tracking list is empty





NASA's NSSDC Master Catalog

Two Line Element Set (TLE):
1 39485U 13076C   17264.07271225  .00000010  00000-0  00000+0 0  9992
2 39485  82.4882 357.2892 0020895 223.9246 136.0173 12.42885964169670
Source of the keplerian elements: AFSPC